Location: Fort Wayne
(41.1310°N, 85.1290°W)
Time: 01:57:21
(UTC-04:00)

Gbstr 26 Del rocket - Visible Passes

Search period start: 30 September 2014 00:00
Search period end: 10 October 2014 00:00
Orbit: 493 x 1278 km, 51.8° (Epoch: 29 September)

Date Brightness Start Highest point End Pass type
(mag) Time Alt. Az. Time Alt. Az. Time Alt. Az.
30 Sep 6.1 04:46:22 16° SSE 04:46:22 16° SSE 04:47:43 10° SSE visible
30 Sep 2.9 21:23:13 10° WSW 21:27:03 74° NW 21:27:10 73° NNW visible
01 Oct 3.3 21:20:56 10° WSW 21:24:43 56° NNW 21:25:22 49° N visible
02 Oct 3.8 21:18:43 10° W 21:22:25 44° NNW 21:23:27 36° NNE visible
03 Oct 4.1 21:16:32 10° W 21:20:08 36° NNW 21:21:23 29° NNE visible
04 Oct 4.4 21:14:24 10° W 21:17:52 30° NNW 21:19:14 25° NNE visible
05 Oct 4.6 21:12:17 10° WNW 21:15:37 26° NNW 21:17:00 22° NNE visible
06 Oct 4.8 21:10:11 10° WNW 21:13:22 23° NNW 21:14:41 20° NNE visible
07 Oct 4.8 21:08:04 10° WNW 21:11:08 21° N 21:12:20 19° NNE visible
08 Oct 4.9 21:05:56 10° NW 21:08:54 20° N 21:09:57 18° NNE visible
09 Oct 4.9 21:03:46 10° NW 21:06:40 19° N 21:07:31 18° NNE visible
